This is the latest recevied weather packets stored in our database for station/object N0MR. If no packets are shown the sender has not sent any weather packets the latest 10 day(s).
| Time | Temp. | Humidity | Pressure | Rain* | Wind** | Luminosity | Snow |
|---|---|---|---|---|---|---|---|
| 1777513325 | 2.22° C | 79% | 1017.9 hPa | 0 mm | - | - | - |
| 1777512728 | 2.22° C | 79% | 1017.9 hPa | 0 mm | - | - | - |
| 1777512126 | 2.78° C | 76% | 1017.9 hPa | 0 mm | - | - | - |
| 1777511525 | 2.78° C | 76% | 1017.9 hPa | 0 mm | - | - | - |
| 1777510926 | 3.33° C | 71% | 1017.6 hPa | 0 mm | - | - | - |
| 1777510326 | 3.33° C | 71% | 1017.6 hPa | 0 mm | - | - | - |
| 1777509726 | 4.44° C | 63% | 1017.6 hPa | 0 mm | - | - | - |
| 1777509125 | 4.44° C | 59% | 1017.3 hPa | 0 mm | - | - | - |
| 1777508525 | 4.44° C | 59% | 1017.3 hPa | 0 mm | - | - | - |
| 1777507925 | 4.44° C | 58% | 1017.3 hPa | 0 mm | - | - | - |
| 1777507327 | 4.44° C | 58% | 1017.3 hPa | 0 mm | - | - | - |
| 1777506726 | 4.44° C | 58% | 1017.1 hPa | 0 mm | - | - | - |
| 1777506127 | 4.44° C | 58% | 1017.1 hPa | 0 mm | - | - | - |
| 1777505526 | 5° C | 59% | 1017.1 hPa | 0 mm | - | - | - |
| 1777504925 | 5° C | 59% | 1017.1 hPa | 0 mm | - | - | - |
| 1777504326 | 5° C | 61% | 1017.2 hPa | 0 mm | - | - | - |
| 1777503727 | 5° C | 61% | 1017.2 hPa | 0 mm | - | - | - |
| 1777503126 | 4.44° C | 60% | 1017.4 hPa | 0 mm | - | - | - |
| 1777502526 | 4.44° C | 60% | 1017.4 hPa | 0 mm | - | - | - |
| 1777501929 | 5° C | 55% | 1017.2 hPa | 0 mm | - | - | - |
| 1777501327 | 5° C | 55% | 1017.2 hPa | 0 mm | - | - | - |
| 1777500726 | 5° C | 57% | 1017.3 hPa | 0 mm | - | - | - |
| 1777500128 | 5° C | 57% | 1017.3 hPa | 0 mm | - | - | - |
| 1777498326 | 4.44° C | 60% | 1017.2 hPa | 0 mm | - | - | - |
| 1777497726 | 4.44° C | 60% | 1017.2 hPa | 0 mm | - | - | - |
* Rain latest hour (hover to see other rain measurements)
** Current wind speed in m/s (hover to see current wind gust speed)